Location: Mohawk View
(42.7837°N, 73.7885°W)
Time: 08:28:39
(UTC+00:00)

Meteor 1-24 Rocket - Pass Details

Date: 29 October 2021
Orbit: 790 x 927 km, 81.3° (Epoch: 27 November)

Event Time Altitude Azimuth Distance (km) Brightness Sun altitude
Rises 08:23:41 0° 139° (SE) 3,297 7.1 -33.8°
Reaches altitude 10° 08:27:00 10° 117° (ESE) 2,390 6.6 -33.2°
Maximum altitude 08:30:00 15° 83° (E) 2,064 6.5 -32.7°
Drops below altitude 10° 08:33:04 10° 49° (NE) 2,442 6.8 -32.1°
Sets 08:36:30 0° 28° (NNE) 3,410 7.3 -31.5°
